If you wish to contribute or participate in the discussions about articles you are invited to join SKYbrary as a registered user

 Actions

Châteaudun (BA 279) Airport

From SKYbrary Wiki

LFOC
Airport
ICAO: LFOC
Summary
Name Châteaudun (BA 279) Airport
Region Europe
Territory France FR.gif
Location , Centre
Serving Chateaudun
Elevation 131.978 m
433 ft
433 ft131.978 m
Type medium airport
Coordinates 48° 3' 29.31" N, 1° 22' 35.85" E
Runways
Designator Length Width Surface ROPS
10/28 2302 m7,552.493 ft
45 m147.638 ft
ASP /


METAR
Observation LFOC 170230Z AUTO 23005KT 9999 BKN010 BKN016 BKN025 13/12 Q1011
Station Chateaudun
Date/Time 17 October 2019 02:30:00
Wind direction 230°
Wind speed 05 kts
Lowest cloud amount broken clouds
Temperature 13°C
Dew point 12°C
Humidity 93%
QNH 1011 hPa
Weather condition n/a